This is the latest recevied weather packets stored in our database for station/object N4CRH-13. If no packets are shown the sender has not sent any weather packets the latest 10 day(s).
| Time | Temp. | Humidity | Pressure | Rain* | Wind** | Luminosity | Snow |
|---|---|---|---|---|---|---|---|
| 1777497647 | 7.22° C | 75% | 1295.9 hPa | 0 mm | - | 240 W/m² | - |
| 1777497343 | 7.22° C | 73% | 1295.8 hPa | 0 mm | - | 275 W/m² | - |
| 1777497039 | 8.33° C | 75% | 1296.2 hPa | 0 mm | - | 466 W/m² | - |
| 1777496737 | 8.33° C | 80% | 1296 hPa | 0 mm | - | 589 W/m² | - |
| 1777496433 | 6.67° C | 84% | 1296 hPa | 0 mm | - | 755 W/m² | - |
| 1777496130 | 6.11° C | 83% | 1295.8 hPa | 0 mm | - | 546 W/m² | - |
| 1777495826 | 6.67° C | 88% | 1295.9 hPa | 0 mm | - | 437 W/m² | - |
| 1777495522 | 6.11° C | 90% | 1296.2 hPa | 1.27 mm | - | 353 W/m² | - |
| 1777495218 | 5.56° C | 88% | 1296.3 hPa | 1.27 mm | - | 191 W/m² | - |
| 1777494916 | 5° C | 85% | 1296.7 hPa | 0 mm | - | 102 W/m² | - |
| 1777494613 | 5.56° C | 86% | 1296.7 hPa | 0 mm | - | 121 W/m² | - |
| 1777494310 | 5° C | 85% | 1296.8 hPa | 0 mm | - | 191 W/m² | - |
| 1777494006 | 5° C | 85% | 1296.3 hPa | 1.78 mm | - | 69 W/m² | - |
| 1777493704 | 5.56° C | 85% | 1296.7 hPa | 1.78 mm | - | 51 W/m² | - |
| 1777493401 | 5.56° C | 84% | 1296.5 hPa | 0 mm | - | 62 W/m² | - |
| 1777493097 | 5.56° C | 85% | 1296.5 hPa | 0 mm | - | 73 W/m² | - |
| 1777492794 | 5.56° C | 85% | 1296.5 hPa | 0 mm | - | 77 W/m² | - |
| 1777492490 | 5.56° C | 85% | 1296.5 hPa | 0 mm | - | 79 W/m² | - |
| 1777492187 | 6.11° C | 85% | 1296.5 hPa | 0 mm | - | 93 W/m² | - |
| 1777491884 | 6.11° C | 85% | 1296.2 hPa | 0 mm | - | 185 W/m² | - |
| 1777491580 | 6.11° C | 84% | 1296.3 hPa | 0 mm | - | 262 W/m² | - |
| 1777491278 | 5.56° C | 87% | 1296.2 hPa | 0 mm | - | 373 W/m² | - |
| 1777490974 | 5.56° C | 87% | 1296.5 hPa | 0 mm | - | 234 W/m² | - |
| 1777490670 | 5° C | 87% | 1296.5 hPa | 0 mm | - | 148 W/m² | - |
| 1777490366 | 5.56° C | 88% | 1296.7 hPa | 0 mm | - | 137 W/m² | - |
* Rain latest hour (hover to see other rain measurements)
** Current wind speed in m/s (hover to see current wind gust speed)